Weather in Tataurovo

Russia / Republic of Buryatia     52°08′26″N   107°26′18″E
temp.,
°C
wind,
m/s
gust,
m/s
humid.,
%
clouds,
%
prec.,
mm/h
press.,
hPa
HPBL,
m
17 september, fri
fri1723:00+7nnw11875 0.0 101515
02:00+6nnw119132 0.0 101518
05:00+5nne1193100 0.0 101613
08:00+7ene128456 0.0 1017111
11:00+13e126082 0.0 10151047
14:00+14ese225470 0.0 10141166
17:00+13ene3353100 0.0 1014739
20:00+6nne2379100 0.0 101781
18 september, sat
sat1823:00+4nne2271100 0.0 101727
02:00+5nne1164100 0.0 101720
05:00+5ne116496 0.0 101615
08:00+7ne11585 0.0 101674
11:00+14se11400 0.0 1014596
14:00+18sse11370 0.0 10111178
17:00+18sse12390 0.0 10111192
20:00+10ne22694 0.0 101317
19 september, sun
sun1923:00+8nne22765 0.0 101414
02:00+7ne117637 0.0 101411
05:00+7ne117827 0.0 101411
08:00+9e116976 0.0 101453
11:00+17sse134843 0.0 1012605
14:00+20s33415 0.0 10101186
17:00+19s224325 0.0 10091009
20:00+12nne22705 0.0 101013
20 september, mon
mon2023:00+10n11785 0.0 101110
02:00+9ne118222 0.0 101010
05:00+8ne11884 0.0 100910
08:00+11e11762 0.0 100867
11:00+18se26504 0.0 1005803
14:00+20sse47440 0.0 10021415
17:00+21s47440 0.0 10001487
20:00+13e11694 0.0 100111
21 september, tue
tue2123:00+10wsw6149497 1.0 1005671
02:00+9w2591100 1.9 1007334
05:00+8w139595 3.2 1009205
08:00+8w2390100 3.3 1011291
11:00+9nw2471100 0.1 1010696
14:00+9nnw3553100 0.1 10101089
17:00+9n2849100 0.0 10101259
20:00+7nnw1458100 0.0 1011232